[[{"header":{"parameterUnit":"m.s-1","parameterCategory":1,"la1":30.2991,"la2":30.254,"lo1":-89.0895,"lo2":-89.0444,"dy":0.0017,"dx":0.0017,"nx":28,"ny":28,"refTime":"2025-03-05T03:00:00:Z","depth":0,"parameterNumber":2,"parameterNumberName":"U-component_of_WINDS"},"data":[0,0,0,0,0,0,0,0,0,0,0,0,0,0,0,0,0,0,0,0,0,0,0,0,0,0,0,0,0,0,0,0,0,0,0,0,0,0,0,0,0,0,0,0,0,0,0,0,0,0,0,0,0,0,0,0,0,0,6.0898,6.0898,0,6.0844,6.0844,6.0843,6.0739,6.0737,6.0735,6.0733,6.0682,6.0682,6.0683,0,0,0,0,0,0,0,0,0,0,0,0,0,6.0915,6.0915,6.0898,6.0898,6.0897,6.0844,6.0844,6.0843,6.0739,6.0737,6.0734,6.0732,6.0681,6.0682,6.0683,0,0,0,0,0,0,0,0,0,0,0,0,0,6.0889,6.0916,6.0898,6.0839,6.0833,6.0844,6.0844,6.0843,6.074,6.0737,6.0734,6.0731,6.0681,6.0682,6.0683,6.0749,0,0,6.0685,6.0686,0,0,0,0,0,0,0,0,6.0891,6.0889,6.0848,6.0843,6.0836,6.0795,6.0831,6.0811,6.0741,6.0775,6.0733,6.0729,6.0722,6.0719,6.0716,6.0747,6.0744,6.0685,6.0686,6.0686,6.0686,0,0,0,0,0,0,0,6.0893,6.0891,6.0877,6.0848,6.0841,6.0816,6.0809,6.0826,6.0767,6.0772,6.0764,6.0759,6.0718,6.0716,6.0714,6.0744,6.0685,6.0686,6.0686,6.0687,6.0826,6.0829,0,0,0,0,0,0,6.0903,6.0893,6.0879,6.0875,6.0857,6.0818,6.081,6.0812,6.0766,6.0756,6.0762,6.0755,6.0716,6.0713,6.0712,6.0786,6.0686,6.0687,6.0687,6.0822,6.0826,6.083,0,0,0,0,0,0,6.0904,6.0903,6.0881,6.0882,6.0877,6.0821,6.0823,6.0812,6.0809,6.0758,6.0748,6.077,6.0713,6.0711,6.074,6.0783,6.0687,6.0688,6.0819,6.0824,6.0828,6.0935,0,0,0,0,0,0,6.0905,6.0904,6.0927,6.0883,6.0878,6.0909,6.0826,6.0813,6.081,6.08,6.0763,6.0754,6.0711,6.074,6.0741,6.0782,6.0689,6.0815,6.0821,6.0827,6.0927,6.0943,6.0956,0,0,0,0,0,6.0906,6.0961,6.0929,6.0928,6.0906,6.0912,6.0909,6.0857,6.0814,6.0838,6.0806,6.0755,6.0778,6.0743,6.0744,6.0786,6.0812,6.0819,6.0826,6.0921,6.094,6.0956,0,0,0,0,0,0,6.1012,6.0954,6.0918,6.096,6.0942,6.0894,6.0923,6.0878,6.0873,6.0864,6.08,6.0793,6.0831,6.0811,6.0774,6.0848,6.0787,6.0795,6.0859,6.0876,6.089,6.0894,6.0689,0,0,0,0,0,6.1041,6.1049,6.0998,6.104,6.1032,6.098,6.098,6.0942,6.0921,6.0913,6.0882,6.0865,6.0867,6.0871,6.0871,6.0924,6.0915,6.0954,6.0968,6.098,6.0987,6.1014,6.103,6.0854,6.0853,6.0853,0,0,6.1099,6.1068,6.1078,6.1061,6.1042,6.1053,6.0974,6.0989,6.0997,6.0915,6.094,6.0918,6.0894,6.0936,6.0953,6.0921,6.1034,6.0989,6.0999,6.1,6.1023,6.104,6.1055,6.0858,6.0858,6.0857,0,0,6.1212,6.1189,6.1221,6.1204,6.1176,6.114,6.1149,6.1108,6.1089,6.1113,6.1052,6.1062,6.1068,6.1053,6.1047,6.1155,6.1108,6.1157,6.1231,6.1258,6.1272,6.1284,6.1321,6.1336,6.1164,6.1164,6.1165,0,6.1289,6.1302,6.1244,6.1263,6.1257,6.1183,6.1215,6.1202,6.1176,6.1174,6.1139,6.1145,6.1124,6.1161,6.1187,6.1185,6.1192,6.116,6.1274,6.1286,6.1296,6.1331,6.1346,6.117,6.117,6.1169,6.1169,0,6.1397,6.1408,6.1437,6.1412,6.141,6.1436,6.1384,6.1389,6.1351,6.1319,6.1345,6.1317,6.131,6.1316,6.128,6.1348,6.1329,6.1285,6.1223,6.132,6.1352,6.1365,6.1179,6.1177,6.1175,6.1174,0,0,6.1575,6.1518,6.1529,6.1517,6.1481,6.1488,6.1511,6.1503,6.1508,6.1494,6.1511,6.1519,6.1477,6.147,6.1432,6.1455,6.1542,6.1408,6.1406,6.1433,6.1615,6.1647,6.1664,6.1511,6.1513,6.1515,6.1616,0,6.1679,6.1712,6.1662,6.1708,6.1717,6.1646,6.1666,6.1647,6.1619,6.1623,6.1592,6.1598,6.1543,6.1538,6.1558,6.1527,6.1577,6.1519,6.1527,6.1528,6.1534,6.1681,6.1715,6.1812,6.1629,6.1631,6.1632,0,6.1804,6.1793,6.184,6.1801,6.1802,6.1821,6.1809,6.1814,6.1791,6.1769,6.1761,6.1715,6.1736,6.1676,6.1704,6.1665,6.1666,6.1651,6.1653,6.1651,6.1585,6.1682,6.1842,6.1856,6.1652,6.165,6.1649,0,6.1928,6.1926,6.1953,6.1945,6.19,6.1915,6.1897,6.187,6.1869,6.1859,6.1857,6.1851,6.1848,6.1845,6.1798,6.1759,6.1832,6.1768,6.1814,6.1815,6.1832,6.1831,6.1993,6.1834,6.1834,6.1834,6.1833,0,6.2048,6.2079,6.2008,6.2025,6.2058,6.2,6.2035,6.201,6.1987,6.1999,6.1939,6.1951,6.1889,6.1896,6.186,6.1888,6.1887,6.187,6.186,6.1875,6.1877,6.1874,6.1865,6.1837,6.1837,6.1836,6.1835,0,6.2191,6.2145,6.217,6.2125,6.2114,6.2141,6.2103,6.2117,6.2085,6.21,6.2101,6.2051,6.2055,6.2008,6.2004,6.198,6.2024,6.2003,6.2032,6.2025,6.2073,6.2069,6.2238,6.2257,6.2087,6.2089,6.209,0,6.2271,6.2293,6.225,6.2253,6.2237,6.2243,6.224,6.2185,6.2185,6.216,6.2178,6.2177,6.2173,6.2183,6.2147,6.2143,6.2121,6.218,6.212,6.2134,6.212,6.2119,6.2121,6.2193,6.2195,6.2197,6.2198,0,6.2417,6.2392,6.239,6.2381,6.2379,6.2369,6.2355,6.2361,6.2301,6.2304,6.2307,6.2304,6.2298,6.2298,6.2288,6.227,6.2225,6.2217,6.2228,6.2242,6.2258,6.2249,6.2065,6.2214,6.2212,6.2211,6.221,6.2209,6.2529,6.2546,6.2518,6.2518,6.2501,6.249,6.25,6.2469,6.247,6.246,6.2428,6.2437,6.2413,6.2394,6.2381,6.2387,6.2358,6.2374,6.2377,6.2382,6.239,6.2258,6.2386,6.2385,6.2385,6.2384,6.2384,0,6.2671,6.265,6.265,6.2632,6.2632,6.2588,6.2571,6.2574,6.2582,6.2563,6.256,6.2564,6.2563,6.2527,6.2522,6.2534,6.2513,6.2535,6.2533,6.253,6.2417,6.2408,6.2552,6.2552,6.2552,6.2552,6.2552,6.2552,6.2745,6.277,6.2742,6.2759,6.2737,6.2743,6.2737,6.2727,6.2711,6.2717,6.2716,6.2692,6.2667,6.266,6.2658,6.2647,6.2648,6.2677,6.2659,6.2554,6.2538,6.2522,6.2513,6.2678,6.2678,6.2772,6.2772,6.2773]},{"header":{"parameterUnit":"m.s-1","parameterCategory":1,"la1":30.2991,"la2":30.254,"lo1":-89.0895,"lo2":-89.0444,"dy":0.0017,"dx":0.0017,"nx":28,"ny":28,"refTime":"2025-03-05T03:00:00:Z","depth":0,"parameterNumber":3,"parameterNumberName":"V-component_of_WINDS"},"data":[0,0,0,0,0,0,0,0,0,0,0,0,0,0,0,0,0,0,0,0,0,0,0,0,0,0,0,0,0,0,0,0,0,0,0,0,0,0,0,0,0,0,0,0,0,0,0,0,0,0,0,0,0,0,0,0,0,0,3.6939,3.694,0,3.7012,3.7013,3.7013,3.6992,3.6991,3.6989,3.6988,3.7058,3.7061,3.7064,0,0,0,0,0,0,0,0,0,0,0,0,0,3.6778,3.6782,3.6939,3.694,3.6941,3.7012,3.7013,3.7014,3.6992,3.699,3.6989,3.6987,3.7057,3.706,3.7064,0,0,0,0,0,0,0,0,0,0,0,0,0,3.6849,3.6783,3.6939,3.6939,3.694,3.7011,3.7013,3.7014,3.6993,3.699,3.6988,3.6986,3.7055,3.706,3.7065,3.714,0,0,3.708,3.7082,0,0,0,0,0,0,0,0,3.6845,3.6855,3.6938,3.6939,3.694,3.6991,3.6982,3.7056,3.6993,3.6972,3.6988,3.6985,3.7037,3.7043,3.7061,3.7143,3.7146,3.708,3.7083,3.7085,3.7087,0,0,0,0,0,0,0,3.684,3.6852,3.6968,3.6939,3.6941,3.6934,3.6942,3.6995,3.7016,3.6974,3.6973,3.6982,3.7037,3.7057,3.7063,3.7147,3.708,3.7084,3.7087,3.7089,3.7293,3.7295,0,0,0,0,0,0,3.6835,3.6848,3.6966,3.697,3.6886,3.6939,3.6947,3.6977,3.7016,3.7019,3.6984,3.6981,3.705,3.7057,3.7065,3.7156,3.7085,3.709,3.7093,3.729,3.7293,3.7296,0,0,0,0,0,0,3.6832,3.6846,3.6963,3.6909,3.6923,3.6944,3.6977,3.6979,3.6999,3.7023,3.7026,3.7001,3.7048,3.7058,3.7122,3.7158,3.7092,3.7096,3.7287,3.7291,3.7295,3.7337,0,0,0,0,0,0,3.6827,3.6845,3.6875,3.691,3.6926,3.7019,3.6979,3.6982,3.7008,3.7005,3.7039,3.7043,3.7047,3.7114,3.7126,3.7163,3.71,3.7284,3.7289,3.7294,3.7332,3.7341,3.7349,0,0,0,0,0,3.6822,3.6883,3.6876,3.6891,3.6964,3.7021,3.703,3.7035,3.7011,3.7041,3.7056,3.7042,3.7152,3.7121,3.7134,3.7173,3.7282,3.7288,3.7293,3.7328,3.734,3.7349,0,0,0,0,0,0,3.685,3.6887,3.6881,3.6955,3.6985,3.7018,3.7055,3.7047,3.7084,3.7079,3.7082,3.709,3.7155,3.717,3.7135,3.7247,3.7213,3.7222,3.7235,3.7246,3.7255,3.725,3.7104,0,0,0,0,0,3.6865,3.691,3.694,3.7002,3.7018,3.7034,3.7059,3.706,3.7091,3.7103,3.7123,3.7153,3.7194,3.7221,3.726,3.7334,3.7341,3.7367,3.7376,3.7383,3.739,3.743,3.7442,3.7314,3.7314,3.7314,0,0,3.6896,3.6922,3.695,3.7009,3.7032,3.7078,3.7045,3.7094,3.7127,3.711,3.7172,3.7187,3.722,3.7289,3.7321,3.7304,3.7427,3.739,3.7395,3.7399,3.7437,3.745,3.746,3.7318,3.7318,3.7317,0,0,3.6977,3.7001,3.7056,3.7081,3.7118,3.7128,3.7141,3.7175,3.7185,3.7246,3.7235,3.7273,3.7344,3.7368,3.739,3.7479,3.7468,3.7491,3.7536,3.7575,3.7586,3.7595,3.7626,3.7638,3.7498,3.7499,3.7499,0,3.7011,3.708,3.7085,3.7136,3.7161,3.7149,3.7205,3.7228,3.7275,3.7292,3.7273,3.7362,3.7383,3.7458,3.748,3.7497,3.7512,3.7488,3.7584,3.7593,3.7601,3.7632,3.7644,3.7501,3.7501,3.7501,3.75,0,3.712,3.7168,3.7208,3.7255,3.7285,3.7338,3.7349,3.7379,3.7377,3.7389,3.7451,3.7477,3.7521,3.7538,3.7536,3.7613,3.7601,3.7583,3.7549,3.7616,3.7645,3.7657,3.7505,3.7504,3.7503,3.7503,0,0,3.722,3.727,3.7285,3.7306,3.7346,3.7382,3.7434,3.7478,3.7504,3.7536,3.7579,3.7639,3.7623,3.7647,3.7647,3.7682,3.7751,3.7659,3.766,3.7676,3.7836,3.785,3.7864,3.7744,3.7746,3.7748,3.7834,0,3.7304,3.7397,3.7403,3.7486,3.753,3.7519,3.7564,3.7592,3.7604,3.7643,3.7655,3.7698,3.7673,3.7688,3.7721,3.7736,3.7783,3.7729,3.7783,3.7785,3.7776,3.7879,3.7894,3.7974,3.7845,3.7847,3.7848,0,3.7415,3.7453,3.7541,3.7575,3.7593,3.7634,3.7675,3.7712,3.7743,3.7749,3.7777,3.7772,3.7824,3.7787,3.7858,3.7821,3.7843,3.7853,3.7856,3.7862,3.7821,3.7888,3.8,3.8012,3.7866,3.7865,3.7863,0,3.748,3.7553,3.7615,3.7633,3.7674,3.7703,3.772,3.775,3.7776,3.7811,3.7828,3.7869,3.7891,3.7921,3.7927,3.79,3.7998,3.7962,3.8004,3.8004,3.8026,3.8024,3.8143,3.8039,3.8039,3.8038,3.8038,0,3.7574,3.7628,3.7645,3.7683,3.7743,3.7749,3.7808,3.7823,3.785,3.789,3.7882,3.7919,3.7925,3.7963,3.7968,3.8026,3.8036,3.8041,3.8042,3.8043,3.8042,3.8057,3.8052,3.8042,3.8041,3.804,3.804,0,3.7657,3.767,3.7737,3.7771,3.778,3.7823,3.7851,3.7887,3.7898,3.7949,3.7961,3.7978,3.8023,3.8032,3.8085,3.8088,3.8157,3.8151,3.8147,3.8146,3.8188,3.8184,3.8322,3.834,3.8223,3.8224,3.8225,0,3.7716,3.7758,3.7796,3.7823,3.7843,3.7886,3.7914,3.792,3.7948,3.7987,3.8019,3.8063,3.8099,3.8171,3.8187,3.8227,3.8223,3.8268,3.8229,3.8228,3.8224,3.8222,3.8226,3.8276,3.8277,3.8278,3.8279,0,3.7819,3.7824,3.7865,3.7908,3.7941,3.7975,3.8007,3.8029,3.8039,3.8071,3.8118,3.8146,3.82,3.8244,3.8284,3.8301,3.8292,3.8292,3.8303,3.8305,3.83,3.8304,3.8168,3.8288,3.8288,3.8287,3.8286,3.8286,3.7893,3.7929,3.7962,3.8008,3.8033,3.8063,3.8099,3.8115,3.8154,3.82,3.8201,3.8252,3.8281,3.8335,3.8354,3.8393,3.8378,3.8396,3.84,3.8404,3.8409,3.8294,3.84,3.84,3.84,3.8399,3.8399,0,3.7996,3.8017,3.8058,3.8104,3.814,3.8129,3.8164,3.8194,3.824,3.8269,3.8305,3.8358,3.84,3.842,3.8462,3.8489,3.8486,3.85,3.8498,3.8502,3.8419,3.8405,3.8502,3.8502,3.8502,3.8502,3.8502,3.8502,3.8054,3.8116,3.8125,3.8198,3.8218,3.8269,3.829,3.8317,3.8341,3.8402,3.8438,3.8451,3.8476,3.8519,3.8557,3.8562,3.8577,3.8594,3.8596,3.8518,3.8508,3.8498,3.8485,3.8597,3.8597,3.8676,3.8677,3.8677]}]]